Location: Westminster
(33.3626°N, 96.4619°W)
Time: 07:27:09
(UTC+00:00)

Cosmos 1515 Rocket - Pass Details

Date: 04 July 2022
Orbit: 604 x 630 km, 82.5° (Epoch: 14 August)

Event Time Altitude Azimuth Distance (km) Brightness Sun altitude
Rises 08:50:31 0° 0° (N) 2,890 7.8 -24.6°
Reaches altitude 10° 08:52:50 10° 7° (N) 1,976 6.9 -24.3°
Maximum altitude 08:57:02 46° 81° (E) 827 4.4 -23.8°
Enters shadow 08:58:36 32° 132° (SE) 1,060 4.7 -23.6°
